This demonstration page uses our WeatherBlox Daily Observations layout. Learn more.

39.01783, -85.05884

Hourly Observations for July 8, 2019

Temp ( °F °C ) Dew Point ( °F °C ) Humidity (%) Winds ( mph kmh ) Pressure ( in mb ) Visibility ( mi km ) Precip ( " mm )
12:52 am 00:52 Mostly Clear 75 23.9 67 19.4 76 76 NNE 10 17 29.91 1013 10 16.09344 0 0
1:52 am 01:52 Mostly Clear 74 23.3 66 18.9 76 76 NE 9 15 29.91 1013 10 16.09344 0 0
3:52 am 03:52 Mostly Clear 71 21.7 66 18.9 84 84 NNW 8 13 29.91 1013 9 14.484096 0 0
4:52 am 04:52 Clear 70 21.1 65 18.3 84 84 N 9 15 29.91 1013 9 14.484096 0 0
5:52 am 05:52 Clear 70 21.1 63 17.2 79 79 NNE 9 15 29.91 1013 10 16.09344 0 0
6:52 am 06:52 Mostly Sunny 70 21.1 62 16.7 76 76 NE 8 13 29.94 1014 10 16.09344 0 0
7:52 am 07:52 Mostly Sunny 71 21.7 61 16.1 71 71 NNE 10 17 29.94 1014 10 16.09344 0 0
8:52 am 08:52 Mostly Sunny 74 23.3 62 16.7 67 67 N 12 19 29.97 1015 10 16.09344 0 0
9:52 am 09:52 Mostly Sunny 77 25 63 17.2 62 62 NNE 8 13 29.97 1015 10 16.09344 0 0
10:52 am 10:52 Partly Cloudy 79 26.1 64 17.8 60 60 NNW 7 11 29.97 1015 10 16.09344 0 0
12:52 pm 12:52 Mostly Cloudy 82 27.8 64 17.8 55 55 NNE 10 17 29.97 1015 10 16.09344 0 0
1:52 pm 13:52 Mostly Cloudy 84 28.9 65 18.3 53 53 N 8 13 29.94 1014 10 16.09344 0 0
2:52 pm 14:52 Partly Cloudy 86 30 64 17.8 48 48 VRB 7 11 29.94 1014 10 16.09344 0 0
3:52 pm 15:52 Partly Cloudy 88 31.1 64 17.8 45 45 NE 8 13 29.94 1014 10 16.09344 0 0
4:52 pm 16:52 Mostly Sunny 87 30.6 63 17.2 45 45 N 8 13 29.94 1014 10 16.09344 0 0
5:52 pm 17:52 Mostly Sunny 88 31.1 62 16.7 42 42 N 10 17 29.91 1013 10 16.09344 0 0
6:52 pm 18:52 Mostly Sunny 86 30 63 17.2 46 46 NNW 10 17 29.91 1013 10 16.09344 0 0
7:52 pm 19:52 Mostly Sunny 84 28.9 63 17.2 49 49 NNW 10 17 29.91 1013 10 16.09344 0 0
8:52 pm 20:52 Mostly Sunny 81 27.2 63 17.2 54 54 NNW 8 13 29.91 1013 10 16.09344 0 0
9:52 pm 21:52 Clear 78 25.6 62 16.7 58 58 N 6 9 29.94 1014 10 16.09344 0 0
10:52 pm 22:52 Clear 80 26.7 61 16.1 52 52 NE 7 11 29.94 1014 10 16.09344 0 0
11:52 pm 23:52 Clear 77 25 62 16.7 60 60 E 5 7 29.94 1014 10 16.09344 0 0

Powered by AerisWeather